TimeEST,TemperatureF,Dew PointF,Humidity,Sea Level PressureIn,VisibilityMPH,Wind Direction,Wind SpeedMPH,Gust SpeedMPH,PrecipitationIn,Events,Conditions,WindDirDegrees,DateUTC
12:03 AM,66.2,66.2,100,30.06,0.5,Calm,Calm,-,N/A,Fog,Fog,0,2012-12-09 05:03:00
12:20 AM,66.2,64.4,94,30.06,1.2,Calm,Calm,-,N/A,,Partly Cloudy,0,2012-12-09 05:20:00
12:25 AM,66.2,64.4,94,30.06,3.0,Calm,Calm,-,N/A,,Clear,0,2012-12-09 05:25:00
12:35 AM,64.4,62.6,94,30.06,1.8,Calm,Calm,-,N/A,,Partly Cloudy,0,2012-12-09 05:35:00
12:45 AM,64.4,62.6,94,30.06,2.0,Calm,Calm,-,N/A,,Scattered Clouds,0,2012-12-09 05:45:00
12:49 AM,64.4,64.4,100,30.06,0.8,Calm,Calm,-,N/A,,Mostly Cloudy,0,2012-12-09 05:49:00
12:53 AM,64.0,63.0,96,30.06,0.5,NNW,3.5,-,N/A,Fog,Fog,340,2012-12-09 05:53:00
1:05 AM,64.4,64.4,100,30.05,2.5,Calm,Calm,-,N/A,,Overcast,0,2012-12-09 06:05:00
1:12 AM,64.4,64.4,100,30.05,4.0,Calm,Calm,-,N/A,,Overcast,0,2012-12-09 06:12:00
1:17 AM,64.4,64.4,100,30.05,1.8,Calm,Calm,-,N/A,,Overcast,0,2012-12-09 06:17:00
1:23 AM,64.4,64.4,100,30.05,2.0,Calm,Calm,-,N/A,,Overcast,0,2012-12-09 06:23:00
1:31 AM,64.4,64.4,100,30.05,4.0,Calm,Calm,-,N/A,,Mostly Cloudy,0,2012-12-09 06:31:00
1:42 AM,64.4,62.6,94,30.05,4.0,Calm,Calm,-,N/A,,Overcast,0,2012-12-09 06:42:00
1:51 AM,64.4,62.6,94,30.05,1.5,ESE,3.5,-,N/A,,Overcast,120,2012-12-09 06:51:00
1:53 AM,64.0,63.0,96,30.06,1.0,Calm,Calm,-,N/A,,Mist,0,2012-12-09 06:53:00
2:00 AM,64.4,62.6,94,30.05,0.2,ESE,3.5,-,N/A,Fog,Fog,110,2012-12-09 07:00:00
2:53 AM,64.0,63.0,96,30.04,0.2,Calm,Calm,-,0.01,Fog,Fog,0,2012-12-09 07:53:00
3:53 AM,62.1,61.0,96,30.04,0.2,NNE,3.5,-,N/A,Fog,Fog,20,2012-12-09 08:53:00
4:53 AM,62.1,62.1,100,30.05,0.2,Calm,Calm,-,N/A,Fog,Fog,0,2012-12-09 09:53:00
5:36 AM,62.6,62.6,100,30.05,1.2,Calm,Calm,-,N/A,,Overcast,0,2012-12-09 10:36:00
5:49 AM,62.6,62.6,100,30.05,0.5,Calm,Calm,-,N/A,Fog,Fog,0,2012-12-09 10:49:00
5:53 AM,62.1,62.1,100,30.06,0.2,Calm,Calm,-,N/A,Fog,Fog,0,2012-12-09 10:53:00
6:53 AM,62.1,61.0,96,30.08,0.2,Calm,Calm,-,N/A,Fog,Fog,0,2012-12-09 11:53:00
7:53 AM,63.0,63.0,100,30.09,0.2,Calm,Calm,-,N/A,Fog,Fog,0,2012-12-09 12:53:00
8:24 AM,64.4,64.4,100,30.10,2.0,Calm,Calm,-,N/A,,Overcast,0,2012-12-09 13:24:00
8:32 AM,66.2,64.4,94,30.10,1.5,Calm,Calm,-,N/A,,Mostly Cloudy,0,2012-12-09 13:32:00
8:53 AM,68.0,66.9,96,30.11,10.0,Calm,Calm,-,N/A,,Partly Cloudy,0,2012-12-09 13:53:00
9:53 AM,78.1,68.0,71,30.12,10.0,Calm,Calm,-,N/A,,Clear,0,2012-12-09 14:53:00
10:53 AM,80.1,68.0,67,30.11,10.0,Variable,4.6,-,N/A,,Clear,0,2012-12-09 15:53:00
11:53 AM,79.0,68.0,69,30.09,10.0,Calm,Calm,-,N/A,,Clear,0,2012-12-09 16:53:00
12:53 PM,84.0,66.9,56,30.06,10.0,SW,5.8,-,N/A,,Clear,230,2012-12-09 17:53:00
1:53 PM,82.9,66.0,56,30.04,10.0,West,6.9,-,N/A,,Scattered Clouds,270,2012-12-09 18:53:00
2:53 PM,82.9,63.0,51,30.03,10.0,West,8.1,-,N/A,,Clear,270,2012-12-09 19:53:00
3:53 PM,82.0,64.0,54,30.03,10.0,West,8.1,-,N/A,,Clear,260,2012-12-09 20:53:00
4:53 PM,80.1,66.0,62,30.04,10.0,WSW,5.8,-,N/A,,Clear,240,2012-12-09 21:53:00
5:53 PM,75.9,66.9,74,30.04,10.0,WSW,3.5,-,N/A,,Clear,250,2012-12-09 22:53:00
6:07 PM,75.2,66.2,73,30.04,10.0,Calm,Calm,-,N/A,,Partly Cloudy,0,2012-12-09 23:07:00
6:53 PM,70.0,66.0,87,30.05,10.0,Calm,Calm,-,N/A,,Partly Cloudy,0,2012-12-09 23:53:00
7:53 PM,70.0,66.0,87,30.06,10.0,NW,3.5,-,N/A,,Partly Cloudy,310,2012-12-10 00:53:00
8:53 PM,69.1,64.9,87,30.07,10.0,North,5.8,-,N/A,,Partly Cloudy,350,2012-12-10 01:53:00
9:53 PM,68.0,64.9,90,30.07,10.0,Calm,Calm,-,N/A,,Partly Cloudy,0,2012-12-10 02:53:00
10:53 PM,66.9,64.0,90,30.06,10.0,NNE,5.8,-,N/A,,Partly Cloudy,20,2012-12-10 03:53:00
11:53 PM,66.9,64.9,93,30.05,10.0,Calm,Calm,-,N/A,,Mostly Cloudy,0,2012-12-10 04:53:00